Theta_e
287 287 286 286 286 286 286 286 286 286 287 286 287 288 288 289 291 292 294 293 293 294 295 295 295 296 296 297 298 297 296 297 294 296 302 305 307 311 316 318 315 317 316
285 285 284 284 284 284 284 284 285 284 285 285 286 286 287 288 290 288 289 289 289 289 291 291 291 293 293 295 294 293 293 293 292 291 294 297 299 304 308 313 315 314 314
283 283 283 283 282 282 282 283 283 283 284 284 285 285 285 287 287 288 288 288 288 288 289 289 289 290 290 291 291 291 291 292 292 291 290 294 295 298 301 305 307 309 311
282 282 281 281 281 281 281 282 282 282 282 283 284 284 285 286 285 285 285 286 286 287 289 289 289 288 288 288 289 290 291 290 290 289 289 290 292 294 295 295 297 303 302
280 280 279 280 280 280 280 280 281 281 282 282 283 283 284 284 283 283 283 283 284 285 286 286 287 287 286 288 288 288 289 288 288 287 287 288 288 289 289 292 294 296 300
279 278 278 278 278 278 279 279 280 280 281 282 282 281 281 282 283 283 283 282 283 283 283 284 285 285 286 287 287 288 289 287 286 286 286 286 287 288 290 290 291 291 291
278 277 276 277 277 277 278 278 278 279 280 280 280 279 279 280 282 283 282 282 281 281 281 281 282 283 283 282 283 284 284 286 288 287 285 285 287 288 289 288 289 289 291
276 275 275 275 275 276 277 277 277 279 279 278 278 278 278 278 281 282 281 280 280 280 280 280 279 280 279 280 280 279 280 281 283 285 285 287 288 289 291 291 290 290 292
273 273 273 274 274 275 275 275 276 277 277 277 277 276 276 277 279 281 280 279 277 277 278 278 278 277 279 280 278 276 275 277 280 281 283 285 288 290 291 290 287 287 287
271 272 272 273 274 273 274 274 275 276 276 277 276 276 276 276 278 280 279 277 275 276 276 276 277 277 278 279 276 274 272 274 274 274 276 280 285 287 289 289 288 286 287
271 271 271 272 273 273 273 274 275 275 275 275 276 276 276 276 276 278 278 276 275 273 274 273 274 277 277 277 277 274 274 274 271 271 273 275 277 280 286 289 289 288 286
269 270 270 271 272 272 272 273 274 274 275 274 274 274 274 275 276 277 277 277 276 272 272 272 272 275 275 274 273 275 274 271 268 268 269 270 271 274 277 284 285 286 288
268 268 269 269 270 271 271 272 273 273 273 272 272 272 271 273 274 275 274 274 274 271 272 271 272 272 272 270 271 271 268 266 266 265 265 267 269 272 275 277 281 285 284
267 268 269 268 270 270 271 271 271 270 271 270 270 270 269 269 270 271 271 270 271 269 269 267 269 268 268 267 265 266 265 265 264 264 265 267 269 269 270 273 274 277 282
267 268 268 269 268 268 269 268 269 269 270 268 268 269 267 266 269 271 270 268 268 268 264 263 262 261 261 261 261 261 262 262 262 263 263 264 265 266 267 270 271 272 279
267 268 266 267 267 267 266 267 268 268 269 269 270 270 269 270 271 271 270 270 269 268 261 259 259 259 258 258 258 258 260 260 261 261 262 262 262 263 264 267 268 268 270
265 265 266 265 265 264 264 264 263 265 266 267 267 268 269 269 269 269 269 267 266 263 258 258 257 257 257 257 257 257 257 258 260 260 260 261 261 262 263 263 265 265 266
262 259 264 264 263 263 263 262 262 261 261 262 264 266 267 268 267 267 267 262 258 259 257 256 256 256 256 256 256 255 256 257 258 258 259 260 260 260 261 261 262 263 263
263 263 262 262 262 260 262 262 261 261 260 260 261 262 261 266 265 264 263 257 256 255 255 255 256 255 255 255 255 255 255 255 256 256 257 258 259 259 259 260 261 262 262
260 258 257 261 261 261 261 260 260 260 259 259 259 259 258 260 257 257 257 256 255 255 255 255 255 255 255 254 254 254 254 254 254 255 256 257 258 258 258 259 259 259 260
261 260 255 260 260 260 259 259 259 258 258 258 258 259 264 257 256 256 255 255 255 255 254 254 254 254 254 254 253 253 253 253 253 253 254 256 257 257 257 258 258 259 259
260 260 260 259 259 259 259 258 258 257 257 257 257 258 261 256 256 255 255 255 255 255 255 254 254 254 253 253 252 252 252 251 252 252 253 255 256 257 257 257 257 257 257
260 260 259 259 258 256 256 258 257 257 257 257 257 257 256 256 255 255 255 254 254 254 254 253 253 252 253 252 252 252 251 251 252 252 252 254 255 257 256 255 255 255 256
259 259 259 259 258 258 258 257 257 255 255 256 256 256 256 255 255 254 254 254 254 253 253 252 252 251 251 251 251 251 251 251 252 252 253 254 255 256 256 255 255 255 255
258 258 258 258 258 257 257 256 257 257 257 257 256 256 256 255 254 254 254 253 252 251 251 252 252 251 250 249 250 249 250 252 252 253 255 257 255 254 252 253 252 254 254
258 258 257 257 257 256 256 256 256 257 256 256 256 255 254 254 253 253 253 252 252 251 250 251 251 250 250 251 250 252 254 256 256 258 260 255 256 255 252 251 251 252 253
Wind_Speed
7 8 8 8 8 8 8 8 9 9 10 11 12 12 12 12 12 11 12 12 13 12 12 12 13 13 10 10 9 10 10 11 14 15 13 14 18 17 12 13 9 12 12
7 7 7 8 8 9 9 9 9 9 9 10 11 11 11 12 12 13 13 13 14 13 13 14 14 11 14 12 10 14 13 13 13 22 16 14 16 18 18 17 13 9 11
6 6 6 8 8 9 9 9 10 10 10 10 10 11 11 11 12 13 13 13 13 12 13 14 14 14 14 12 14 13 13 12 13 15 18 14 14 14 15 14 13 12 8
4 5 6 7 8 9 9 9 9 9 9 10 10 11 11 10 14 15 15 14 13 12 12 12 13 13 15 16 14 14 13 15 15 15 17 17 15 13 11 11 13 11 12
4 5 6 6 7 8 8 9 8 9 9 10 10 11 12 10 12 16 15 15 13 13 12 13 12 14 16 15 12 15 16 14 14 16 18 18 16 15 14 11 13 12 15
5 4 4 5 8 9 8 8 9 9 9 9 10 11 11 9 21 23 20 13 13 12 13 13 14 15 17 23 25 27 22 17 18 15 16 18 22 18 14 12 13 14 18
5 5 5 6 8 7 7 8 9 9 9 10 11 12 12 12 23 25 26 11 12 13 14 14 13 12 16 18 24 28 24 26 24 19 21 21 24 17 16 18 16 16 17
5 4 5 7 7 7 7 8 9 8 9 9 10 12 11 10 21 24 25 13 12 14 14 14 15 16 18 23 21 19 18 16 17 15 18 22 23 23 19 17 18 18 18
5 5 5 7 7 7 8 8 8 8 8 9 9 10 11 11 20 24 20 12 12 14 14 14 14 16 28 31 20 19 19 17 21 31 32 35 37 38 33 17 17 14 17
5 4 5 7 6 8 8 8 7 7 8 7 9 9 10 10 18 23 21 10 13 12 12 14 19 23 30 29 17 15 18 18 20 20 19 22 25 24 30 20 15 16 15
1 3 5 6 6 7 6 6 7 6 6 6 7 7 7 9 12 22 24 11 11 11 10 11 11 28 27 27 25 14 18 20 20 15 15 14 16 18 15 12 13 13 14
2 4 5 5 5 5 5 5 5 6 5 5 5 5 6 8 15 19 23 22 21 12 11 11 12 27 25 24 19 28 28 20 12 12 13 14 16 16 17 15 14 14 13
3 4 4 5 6 5 5 5 4 5 5 6 6 6 7 8 8 20 22 23 20 13 11 17 23 24 23 17 25 27 19 13 13 13 14 14 15 16 19 17 19 12 11
4 4 4 5 4 4 3 4 4 5 5 6 6 6 6 7 8 9 10 10 15 12 15 10 15 18 17 16 13 15 12 12 12 12 13 14 14 15 15 15 15 17 9
4 4 3 4 4 3 4 3 4 4 5 5 5 5 6 7 9 16 15 10 9 14 10 8 8 9 10 11 11 12 12 12 13 13 12 14 14 15 15 16 15 14 12
4 3 3 3 3 3 3 2 3 5 6 9 11 8 5 13 17 18 20 18 18 20 6 7 8 9 10 11 12 12 11 14 13 13 12 13 13 15 16 15 14 14 14
4 3 3 3 3 3 3 3 3 4 2 6 10 11 13 15 16 17 19 16 16 13 6 7 7 8 9 10 10 11 12 12 14 12 12 13 13 13 16 14 14 14 14
3 3 2 2 2 2 2 3 3 4 4 4 7 9 13 16 15 15 17 12 7 8 6 7 7 8 8 9 9 10 10 11 11 12 12 12 13 13 14 14 14 15 14
2 3 1 1 2 1 2 2 2 3 3 4 5 6 8 15 14 13 13 5 5 6 6 6 7 7 8 8 9 9 10 10 11 11 11 11 12 13 13 13 13 18 18
2 3 1 1 0 1 1 2 2 3 3 4 4 4 6 6 5 6 5 5 5 5 6 6 7 7 7 8 8 8 9 10 10 10 10 11 11 11 12 13 13 13 13
1 2 1 2 1 1 1 2 2 3 3 3 4 4 12 3 5 5 5 5 5 5 6 6 7 7 7 7 7 8 8 9 9 9 10 10 11 11 11 11 11 11 12
1 2 2 2 1 2 1 2 2 3 3 4 5 5 11 3 3 4 5 5 5 5 5 6 6 7 7 7 8 8 8 8 8 9 9 10 10 10 10 11 11 11 11
3 4 3 3 3 1 3 3 3 3 4 4 5 5 4 4 4 5 5 5 5 5 5 5 7 7 6 6 6 7 8 8 8 8 10 10 9 9 10 10 10 10 10
4 4 4 3 3 3 4 4 4 4 5 5 5 5 5 4 5 6 6 5 5 5 5 6 6 8 8 7 7 7 7 7 7 9 11 10 9 8 8 8 8 10 8
4 4 4 4 3 4 4 4 5 5 5 5 5 5 5 5 6 6 6 5 4 5 7 6 7 8 9 10 11 12 11 13 12 14 9 10 6 6 4 5 5 7 7
5 5 4 4 4 4 5 5 5 5 5 5 5 5 5 5 6 6 6 5 5 6 8 7 7 10 10 10 11 12 13 15 15 16 8 3 6 5 3 4 6 5 6
Wind_Direction
23 28 27 30 31 33 34 27 22 13 14 10 6 4 5 1 3 3 360 3 350 347 346 342 338 338 336 333 333 335 328 326 314 307 305 307 304 296 291 275 264 260 257
17 24 25 29 30 31 29 21 20 18 16 14 10 9 10 6 7 10 0 357 351 347 342 340 337 336 335 333 333 329 322 318 308 303 308 310 311 310 304 294 280 262 257
22 22 28 32 31 30 24 18 18 15 18 16 21 13 12 7 14 2 358 353 347 342 339 335 332 333 332 336 330 319 318 315 310 302 304 303 302 308 309 313 312 295 278
42 27 31 28 33 28 21 14 16 19 19 21 18 13 9 11 17 1 357 349 342 339 337 336 333 331 330 322 315 316 314 312 309 303 301 302 301 304 296 294 299 294 286
56 51 34 25 41 35 26 17 12 18 17 16 18 12 11 27 11 1 355 345 336 337 337 337 332 323 302 308 313 313 312 310 306 304 299 299 301 306 306 306 294 296 294
69 54 45 44 52 31 24 18 10 17 16 15 17 17 12 20 5 1 358 339 344 342 339 338 334 328 341 331 337 328 315 309 305 300 297 292 295 299 298 294 294 294 290
65 49 43 48 54 42 25 27 18 7 18 12 19 18 13 17 5 2 357 351 349 349 343 340 341 342 340 343 328 324 318 312 306 298 291 288 290 290 292 292 284 277 276
72 35 44 53 49 42 39 30 23 5 18 16 15 16 9 8 1 0 359 354 352 346 344 344 349 348 345 337 330 324 323 323 314 320 307 296 285 287 277 280 283 284 277
62 29 30 52 47 41 40 29 19 8 15 13 13 13 6 3 358 2 2 356 354 348 347 350 345 345 340 344 340 335 328 325 322 316 304 295 290 283 275 274 269 269 269
46 21 21 40 42 42 34 28 10 9 16 4 11 9 4 358 355 3 3 358 351 348 343 347 348 346 346 346 346 334 330 331 330 323 320 312 310 292 278 260 264 262 262
71 44 45 36 45 41 32 26 21 2 16 358 12 356 7 0 356 3 1 1 353 347 343 344 346 342 346 347 352 340 343 339 330 329 327 326 328 328 322 291 261 255 263
70 72 53 47 42 41 33 19 21 356 6 5 -0 1 4 354 359 1 359 1 356 350 345 338 335 343 347 350 349 350 350 347 339 340 339 338 334 326 324 309 293 283 271
85 73 58 50 49 29 31 17 20 356 10 5 356 1 3 346 356 0 360 356 355 354 348 337 341 347 348 348 349 354 351 350 347 348 341 337 331 322 323 332 326 294 280
101 80 74 61 42 38 34 14 25 8 9 359 3 354 2 343 349 354 1 354 352 352 352 338 346 348 349 349 345 352 352 352 349 343 337 331 328 334 337 338 337 329 307
98 90 75 82 49 35 34 24 15 21 22 7 353 347 2 345 349 354 357 354 351 350 357 346 349 350 348 350 352 352 350 349 350 345 342 340 340 339 341 342 346 341 343
127 99 62 63 48 38 15 9 56 19 25 21 0 7 16 350 355 356 358 357 356 4 5 359 352 351 351 348 347 347 349 347 345 342 342 343 342 342 341 344 349 356 350
87 85 86 53 42 22 13 11 347 347 346 6 7 7 2 359 355 357 358 360 1 14 7 357 350 348 343 343 343 343 340 341 337 342 341 342 342 343 345 348 349 354 352
108 75 73 65 34 17 8 356 341 340 335 336 353 353 358 355 352 356 1 2 355 7 2 347 344 340 338 338 337 337 335 335 341 340 341 343 345 345 345 349 351 349 349
143 99 64 72 59 353 327 329 323 320 327 325 335 346 352 347 350 359 4 2 346 343 342 336 334 332 330 331 330 329 330 332 333 335 340 341 343 346 345 345 346 349 351
129 106 19 52 54 318 325 320 331 337 323 322 324 337 317 349 347 343 344 339 335 331 329 328 326 322 324 325 327 325 326 330 333 336 336 338 338 345 343 343 348 347 351
140 145 21 239 231 270 310 316 316 306 299 307 306 316 315 17 317 319 321 323 325 322 319 318 318 315 320 321 321 322 322 322 326 329 330 333 333 342 341 341 343 345 347
220 208 215 234 240 253 275 281 283 281 288 295 300 306 322 304 306 305 303 307 308 304 303 307 307 308 313 315 316 315 316 316 320 325 321 325 326 339 339 340 342 346 348
214 218 214 214 231 239 246 242 258 266 278 284 290 296 304 301 301 296 298 299 297 302 301 300 298 300 301 301 305 301 305 306 309 310 308 314 319 337 337 339 340 343 349
218 221 231 236 229 247 252 253 259 251 250 267 273 278 283 285 289 288 286 290 294 291 294 290 288 288 293 298 298 297 292 292 297 296 296 299 299 335 330 333 337 335 341
219 224 228 240 244 242 252 246 251 258 260 260 266 271 276 279 279 281 286 286 284 286 284 288 287 286 292 293 292 290 285 295 293 287 288 287 308 310 308 312 320 327 334
220 225 232 234 234 236 241 249 253 255 255 258 260 263 266 270 271 276 280 280 282 285 291 282 282 283 288 291 284 282 292 299 293 285 303 301 304 304 301 303 310 312 316